Regional Weather Roundup
Issued by NWS Green Bay, WI

Home | Current Version | Previous Version | Graphics & Text | Print | Product List | Glossary Off
Versions: 1 2 3 4 5 6 7 8 9 10 11 12 13 14 15 16 17 18 19 20 21 22 23 24 25 26 27 28 29 30 31 32 33 34 35 36 37 38 39 40 41 42 43 44 45 46 47 48 49 50

656
ASUS43 KGRB 241811
RWRGRB

NORTH-CENTRAL AND NORTHEAST WISCONSIN REGIONAL WEATHER ROUNDUP
NATIONAL WEATHER SERVICE GREEN BAY WI
100 PM CDT SUN SEP 24 2017

WIZ005-009-010>012-018-019-241900-
NORTH CENTRAL WISCONSIN

CITY           SKY/WX    TMP DP  RH WIND       PRES   REMARKS
IRONWOOD       SUNNY     85  62  46 SW17G28   29.97F
MANITOWISH WTR NOT AVBL
ARBOR VITAE    SUNNY     83  64  51 S8G20     30.03F
EAGLE RIVER    MOSUNNY   85  58  38 S12G21    30.04F
LAND O LAKES   MOSUNNY   84  61  44 S10       30.05F
RHINELANDER    MOSUNNY   84  63  49 S12       30.05F
PHILLIPS       CLOUDY    84  62  46 SW10G21   30.00F
ANTIGO         MOSUNNY   83  63  49 S15       30.06F
TOMAHAWK       MOSUNNY   86  60  41 SW3       30.04F
MERRILL        SUNNY     87  63  45 SW8G18    30.04F
$$

WIZ013-073-241900-
NORTHEAST WISCONSIN

CITY           SKY/WX    TMP DP  RH WIND       PRES   REMARKS
IRON MOUNTAIN  SUNNY     87  64  46 S8        30.03F
MARINETTE      SUNNY     86  68  54 S8        30.05F
OCONTO         SUNNY     88  67  49 S8        30.03F HX  90
$$

WIZ017-030-035>037-045-241900-
CENTRAL WISCONSIN

CITY           SKY/WX    TMP DP  RH WIND       PRES   REMARKS
MEDFORD        SUNNY     84  61  45 SW13G18   30.03F
WAUSAU         MOSUNNY   84  62  47 SW13      30.02F
MOSINEE        MOSUNNY   84  63  48 S10       30.04F
MARSHFIELD     MOSUNNY   87  61  41 S10       30.02F
WISC RAPIDS    SUNNY     89  63  41 SW10      30.04F HX  90
STEVENS POINT  SUNNY     86  63  45 S10G20    30.03F
WAUPACA        SUNNY     90  63  40 S12G18    30.03F HX  90
SHAWANO        SUNNY     90  64  42 S5        30.03F HX  91
CLINTONVILLE   NOT AVBL
WAUTOMA        NOT AVBL
$$

WIZ038-039-048-051-241900-
FOX VALLEY

CITY           SKY/WX    TMP DP  RH WIND       PRES   REMARKS
NWS GREEN BAY  MOSUNNY   87  67  51 S9        30.04F HX  90
APPLETON       MOSUNNY   88  61  40 S10       30.04F
OSHKOSH        SUNNY     87  66  49 S15G23    30.04F
FOND DU LAC    SUNNY     87  62  43 S14G21    30.05F
$$

WIZ022-050-052-241900-
EAST CENTRAL WISCONSIN

CITY           SKY/WX    TMP DP  RH WIND       PRES   REMARKS
EPHRAIM        FAIR      84  69  60 S9        30.05F
WASHINGTON ISL FAIR      76  68  75 S9        30.05F
STURGEON BAY   SUNNY     87  70  56 S9        30.06F HX  92
MANITOWOC      SUNNY     81  70  69 SE8       30.07F
SHEBOYGAN      SUNNY     88  68  51 S9        30.06F HX  91
$$

LMZ563-521-522-541>543-241900-
LAKESHORE

STATION/POSITION TIME  TEMP    WIND        PRES    VSBY  WAVE
                       AIR SEA DIR/SP/G                  HT/PER
                 (UTC) (F)     (DEG/KT/KT) (MB)    (MI)  (FT/S)
SHEBOYGAN LKSHOR 1800   71     160/ 12/ 12 1017.5F
KEWAUNEE LKSHORE 1742   67     180/  8/  9 1017.4F
NORTHPORT PIER   1740   76     150/  8/  9 1017.6F
N MID LAKE BUOY  1750   69 67  180/ 10/ 10 1018.6F         1/ 3
S GREEN BAY BUOY 1800   80 69   CALM  /  2 1017.2
SISTER BAY LKSHO 1719   89     180/  7/  9   N/A
MENOMINEE LKSHOR 1742   75     150/  5/  8 1017.1F
$$




USA.gov is the U.S. government's official web portal to all federal, state and local government web resources and services.